Weather History for Topeka, KS

Change the Weather History Date:

Tuesday, February 12, 2013

  Actual Average Record
Temperature  
Mean Temperature 33 °F 33 °F  
Max Temperature 44 °F 44 °F 73 °F (1990)
Min Temperature 21 °F 23 °F -25 °F (1899)
Degree Days  
Heating Degree Days 32 32  
Month to date heating degree days 317 396  
Since 1 July heating degree days 3025 3506  
Cooling Degree Days 0 0  
Month to date cooling degree days 0 0  
Year to date cooling degree days 0 0  
Moisture  
Dew Point 22 °F    
Average Humidity 61    
Maximum Humidity 85    
Minimum Humidity 37    
Precipitation  
Precipitation 0.00 in 0.05 in 0.73 in (1949)
Month to date precipitation 0.60 0.52  
Year to date precipitation 1.15 1.38  
Snow  
Snow 0.00 in 0.20 in 3.00 in (1914)
Month to date snowfall 0.0 2.2  
Year to date snowfall 1.5 7.1  
Since 1 July snowfall 6.9 13.6  
Snow Depth 0.00 in    
Sea Level Pressure  
Sea Level Pressure 30.10 in    
Wind  
Wind Speed 2 mph (SW)    
Max Wind Speed 8 mph    
Max Gust Speed 10 mph    
Visibility 10 miles    
Events      
T = Trace of Precipitation, MM = Missing Value Source: NWS Daily Summary

Daily Weather History Graph

Daily Weather History Graph

Search for Another Location

Airport:

Trip Planner

Search our weather history database for the weather conditions in past years. The results will help you decide how hot, cold, wet, or windy it might be!

Date:

Astronomy

Feb. 12, 2013 Rise Set
Actual Time 7:17 AM CST 5:56 PM CST
Civil Twilight 6:49 AM CST 6:24 PM CST
Nautical Twilight 6:18 AM CST 6:55 PM CST
Astronomical Twilight 5:47 AM CST 7:26 PM CST
Moon 8:16 AM CST (2/12) 8:56 PM CST (2/12)
Length of Visible Light 11h 34m
Length of Day
10h 39m
Waxing Crescent, 7% of the Moon is Illuminated
Feb 12
Waxing Crescent
Feb 17
First Quarter
Feb 25
Full
Mar 4
Last Quarter
Mar 11
New

Hourly Weather History & Observations

Time (CST) Temp. Windchill Dew Point Humidity Pressure Visibility Wind Dir Wind Speed Gust Speed Precip Events Conditions
12:53 AM 25.0 °F 20.7 °F 19.9 °F 81% 30.22 in 10.0 mi NW 3.5 mph - N/A   Clear
1:53 AM 25.0 °F 20.7 °F 19.9 °F 81% 30.20 in 10.0 mi NW 3.5 mph - N/A   Clear
2:53 AM 25.0 °F - 19.0 °F 78% 30.18 in 10.0 mi Calm Calm - N/A   Clear
3:53 AM 24.1 °F - 19.9 °F 84% 30.16 in 10.0 mi Calm Calm - N/A   Clear
4:53 AM 25.0 °F - 19.9 °F 81% 30.18 in 10.0 mi Calm Calm - N/A   Clear
5:53 AM 25.0 °F 20.7 °F 19.9 °F 81% 30.17 in 10.0 mi WNW 3.5 mph - N/A   Scattered Clouds
6:53 AM 25.0 °F - 19.9 °F 81% 30.17 in 10.0 mi Calm Calm - N/A   Clear
7:53 AM 25.0 °F - 19.9 °F 81% 30.18 in 10.0 mi Calm Calm - N/A   Clear
8:53 AM 28.0 °F - 21.9 °F 78% 30.17 in 10.0 mi Calm Calm - N/A   Clear
9:53 AM 30.0 °F - 24.1 °F 79% 30.14 in 10.0 mi Calm Calm - N/A   Clear
10:53 AM 34.0 °F - 25.0 °F 70% 30.15 in 10.0 mi Calm Calm - N/A   Clear
11:53 AM 39.0 °F 36.8 °F 24.1 °F 55% 30.14 in 10.0 mi SSW 3.5 mph - N/A   Clear
12:53 PM 41.0 °F 39.0 °F 21.9 °F 47% 30.11 in 10.0 mi South 3.5 mph - N/A   Clear
1:53 PM 43.0 °F 40.3 °F 21.0 °F 42% 30.08 in 10.0 mi SSW 4.6 mph - N/A   Clear
2:53 PM 44.1 °F 41.5 °F 21.0 °F 40% 30.05 in 10.0 mi South 4.6 mph - N/A   Overcast
3:53 PM 44.6 °F 42.2 °F 19.4 °F 37% 30.01 in 10.0 mi SSW 4.6 mph - N/A   Overcast
4:53 PM 44.1 °F 41.5 °F 21.9 °F 42% 30.02 in 10.0 mi SSW 4.6 mph - N/A   Mostly Cloudy
5:53 PM 43.0 °F 41.3 °F 21.9 °F 43% 30.01 in 10.0 mi SW 3.5 mph - N/A   Overcast
6:53 PM 39.9 °F 36.7 °F 21.9 °F 49% 30.02 in 10.0 mi South 4.6 mph - N/A   Clear
7:53 PM 39.0 °F 36.8 °F 21.9 °F 50% 30.01 in 10.0 mi SW 3.5 mph - N/A   Clear
8:53 PM 36.0 °F 32.1 °F 21.9 °F 57% 30.01 in 10.0 mi SSW 4.6 mph - N/A   Clear
9:53 PM 35.1 °F 32.2 °F 21.9 °F 59% 30.00 in 10.0 mi SSW 3.5 mph - N/A   Clear
10:53 PM 28.9 °F - 24.1 °F 82% 30.00 in 10.0 mi Calm Calm - N/A   Clear
11:53 PM 30.0 °F 26.5 °F 21.9 °F 72% 29.99 in 10.0 mi SW 3.5 mph - N/A   Clear